Terminal Aerodrome Forecast
Issued by NWS

Home | Current Version | Previous Version | Graphics & Text | Print | Product List | Glossary Off
Versions: 1 2 3 4 5 6 7 8 9 10 11 12 13 14 15 16 17 18 19 20 21 22 23 24 25 26 27 28 29 30 31 32 33 34

133
FTUS43 KDDC 071523 AAA
TAFGCK
TAF AMD
KGCK 071523Z 0715/0812 07012G18KT P6SM OVC040
     FM072000 03015G25KT P6SM OVC040
     FM080100 01010KT P6SM BKN040=

USA.gov is the U.S. government's official web portal to all federal, state and local government web resources and services.